SCP
0 0 0 0 0 0 0 0 0 0 0 0 0 0 0 0 0 0 0 0 0 0 0 0 0 0 0 0 0 0 0 0 0 0 0 0 0 0 0 0 0 0 0 0
0 0 0 0 0 0 0 0 0 0 0 0 0 0 0 0 0 0 0 0 0 0 0 0 0 0 0 0 0 0 0 0 0 0 0 0 0 0 0 0 0 0 0 0
0 0 0 0 0 0 0 0 0 0 0 0 0 0 0 0 0 0 0 0 0 0 0 0 0 0 0 0 0 0 0 0 0 0 0 0 0 0 0 0 0 0 0 0
0 0 0 0 0 0 0 0 0 0 0 0 0 0 0 0 0 0 0 0 0 0 0 0 0 0 0 0 0 0 0 0 0 0 0 0 0 0 0 0 0 0 0 0
0 0 0 0 0 0 0 0 0 0 0 0 0 0 0 0 0 0 0 0 0 0 0 0 0 0 0 0 0 0 0 0 0 0 0 0 0 0 0 0 0 0 0 0
0 0 0 0 0 0 0 0 0 0 0 0 0 0 0 0 0 0 0 0 0 0 0 0 0 0 0 0 0 0 0 0 0 0 0 0 0 0 0 0 0 0 0 0
0 0 0 0 0 0 0 0 0 0 0 0 0 0 0 0 0 0 0 0 0 0 0 0 0 0 0 0 0 0 0 0 0 0 0 0 0 0 0 0 0 0 0 0
0 0 0 0 0 0 0 0 0 0 0 0 0 0 0 0 0 0 0 0 0 0 0 0 0 0 0 0 0 0 0 0 0 0 0 0 0 0 0 0 0 0 0 0
0 0 0 0 0 0 0 0 0 0 0 0 0 0 0 0 0 0 0 0 0 0 0 0 0 0 0 0 0 0 0 0 0 0 0 0 0 0 0 0 0 0 0 0
0 0 0 0 0 0 0 0 0 0 0 0 0 0 0 0 0 0 0 0 0 0 0 0 0 0 0 0 0 0 0 0 0 0 0 0 0 0 0 0 0 0 0 0
0 0 0 0 0 0 0 0 0 0 0 0 0 0 0 0 0 0 0 0 0 0 0 0 0 0 0 0 0 0 0 0 0 0 0 0 0 0 0 0 0 0 0 0
0 0 0 0 0 0 0 0 0 0 0 0 0 0 0 0 0 0 0 0 0 0 0 0 0 0 0 0 0 0 0 0 0 0 0 0 0 0 0 0 0 0 0 0
0 0 0 0 0 0 0 0 0 0 0 0 0 0 0 0 0 0 0 0 0 0 0 0 0 0 0 0 0 0 0 0 0 0 0 0 0 0 0 0 0 0 0 0
0 0 0 0 0 0 0 0 0 0 0 0 0 0 0 0 0 0 0 0 0 0 0 0 0 0 0 0 0 0 0 0 0 0 0 0 0 0 0 0 0 0 0 0
0 0 0 0 0 0 0 0 0 0 0 0 0 0 0 0 0 -0 0 0 0 0 0 0 0 0 0 0 0 0 0 0 0 0 0 0 0 0 0 0 0 0 0 0
-0 -0 0 0 0 0 0 0 0 0 0 0 0 0 0 0 0 0 0 0 -0 0 0 0 0 0 0 0 0 0 0 0 0 0 0 0 0 0 0 0 0 0 0 -0
0 0 0 0 0 0 0 0 0 0 0 0 0 0 0 0 0 0 0 0 0 0 0 0 0 0 0 0 0 0 0 -0 -0 0 0 0 0 0 0 0 0 -0 -0 -0
0 0 0 0 0 0 0 0 0 0 0 0 0 0 -0 0 0 0 0 0 0 0 0 0 0 0 0 0 -0 0 -0 0 0 0 -0 -0 -0 -0 0 0 0 -0 -0 -0
0 0 0 0 0 0 -0 -0 0 0 0 0 0 0 -0 0 0 0 0 0 0 0 0 0 0 0 -0 0 0 0 0 0 0 0 -0 -0 -0 -0 -0 -0 0 0 0 0
0 0 0 0 -0 -0 -0 0 0 0 0 0 0 0 0 0 0 0 0 0 0 0 -0 0 0 0 0 0 0 0 -0 -0 0 -0 0 0 -0 0 0 0 0 0 0 0
0 0 -0 -0 -0 -0 0 -0 0 0 -0 -0 0 0 0 0 0 0 0 0 0 0 0 0 0 0 0 0 0 0 -0 -0 -0 0 0 0 0 0 0 0 0 0 0 0
-0 -0 0 -0 -0 -0 -0 0 0 0 0 0 0 0 0 0 0 0 0 0 0 -0 0 0 0 0 0 0 -0 0 -0 -0 0 0 0 0 0 0 0 -0 0 0 0 0
0 -0 -0 -0 -0 0 0 0 0 0 0 0 0 0 0 0 0 0 0 0 0 0 0 0 0 0 0 0 0 0 0 0 0 0 0 0 0 0 -0 -0 0 0 0 0
0 0 0 0 0 0 0 0 0 0 0 0 0 0 0 0 0 0 0 0 0 0 0 0 0 0 0 0 0 0 0 0 0 0 0 0 -0 0 0 -0 0 -0 0 0
0 0 0 0 0 0 0 0 0 0 0 0 0 0 0 0 0 0 0 0 0 0 0 0 0 0 0 0 0 0 0 0 0 0 0 0 0 -0 -0 -0 -0 -0 0 0
0 0 0 0 0 0 0 0 0 0 0 0 0 0 0 0 0 0 0 0 0 0 0 0 0 0 0 0 0 0 0 0 0 0 0 0 -0 0 0 -0 -0 -0 0 0
0 0 -0 0 0 0 0 0 0 0 0 0 0 0 0 0 0 0 0 0 0 0 0 0 0 0 0 0 0 0 0 0 0 0 0 0 0 0 0 -0 -0 0 0 0
Wind_Speed_500mb
63 67 70 71 73 71 63 32 9 25 26 5 5 2 7 8 6 2 1 4 4 5 4 3 4 3 6 15 4 5 10 7 17 23 12 4 13 7 6 9 11 1 7 5
61 65 67 66 65 63 58 38 16 15 24 3 4 9 6 5 8 5 2 4 1 3 3 2 9 8 5 13 6 5 9 7 6 5 3 5 12 6 7 9 3 21 17 5
59 62 64 62 58 53 45 16 8 11 19 13 6 10 4 9 10 2 2 3 4 5 2 6 9 9 3 8 3 9 3 6 11 16 4 2 5 8 9 5 7 9 17 9
57 59 59 58 54 46 30 13 4 5 9 5 11 4 6 8 8 10 8 3 4 4 5 3 2 4 3 3 3 3 1 8 8 20 18 12 15 18 17 20 20 16 20 21
54 54 53 51 48 41 17 10 8 9 10 10 9 0 2 5 8 7 7 4 4 3 6 4 5 8 7 7 7 4 3 6 3 11 14 17 24 22 22 24 25 25 26 33
50 48 47 44 40 35 12 14 8 5 6 5 5 1 3 1 12 6 8 14 7 5 3 11 13 15 4 2 7 11 7 6 5 8 3 9 18 23 28 16 14 17 17 4
43 41 40 37 33 27 21 12 8 3 6 5 5 5 16 17 8 9 20 18 4 4 11 9 8 10 12 12 12 19 11 10 6 4 2 8 6 8 6 11 7 12 4 1
38 36 34 32 29 21 17 13 6 3 7 7 23 6 7 10 16 13 13 10 7 17 6 4 6 6 5 9 8 10 17 12 6 5 10 14 12 5 3 6 3 5 4 1
34 32 30 27 25 21 14 15 11 6 7 5 4 7 14 10 6 7 7 7 16 4 7 7 11 10 5 10 9 10 10 3 6 5 6 7 5 7 6 2 11 8 4 17
31 28 26 24 21 21 16 15 14 8 10 14 8 9 4 4 4 8 9 14 5 2 8 12 12 12 3 8 11 11 9 8 17 10 9 9 2 7 3 9 5 11 17 28
27 25 24 20 14 23 19 14 19 9 12 31 40 31 29 19 16 11 4 8 5 5 9 8 8 9 7 6 2 6 13 12 9 7 8 11 6 6 6 8 16 24 26 37
24 25 22 14 18 23 18 12 14 24 25 27 45 59 61 46 32 16 5 5 7 5 4 3 2 6 5 5 8 4 8 3 2 8 2 6 2 5 16 14 18 29 35 38
23 23 24 23 20 15 17 21 20 24 21 32 17 10 9 1 15 54 22 13 12 8 5 1 1 4 2 7 6 4 4 4 5 5 5 4 10 19 9 17 23 29 28 30
23 24 21 24 15 15 18 25 29 24 13 10 13 3 22 36 29 28 38 17 5 9 5 6 3 4 3 2 2 6 2 10 7 11 19 15 4 6 21 26 24 23 28 30
29 28 24 19 17 20 30 31 32 27 17 8 22 32 8 8 10 20 36 42 23 3 5 6 5 4 5 2 3 10 14 13 9 7 5 6 19 20 24 18 20 23 30 34
26 26 19 18 23 24 18 7 8 11 16 8 7 10 5 16 17 19 24 35 23 9 4 2 3 5 3 4 5 7 14 14 14 2 6 17 25 17 12 12 18 24 23 26
22 23 20 17 21 17 10 10 17 6 13 5 11 9 5 16 2 9 15 17 11 10 6 6 3 6 8 4 7 3 7 17 16 19 18 14 6 9 14 10 18 22 21 25
22 21 19 20 17 21 18 7 11 28 17 7 6 8 8 9 1 9 14 16 13 13 4 2 5 7 5 7 17 11 11 12 14 5 12 12 12 15 7 12 17 21 24 31
18 19 15 15 14 9 6 8 4 12 13 5 5 6 6 16 7 5 6 10 8 8 9 7 10 4 9 11 10 7 6 4 7 8 3 3 5 9 10 13 17 21 27 36
19 12 4 5 4 6 4 5 3 5 10 8 8 8 6 7 7 3 3 1 4 5 6 10 5 6 31 30 31 31 23 17 8 1 1 4 2 10 16 17 22 27 33 37
7 3 2 6 3 3 2 4 5 5 5 8 9 13 8 4 5 3 2 1 5 5 5 7 7 5 5 4 3 5 7 9 8 4 4 2 4 12 22 29 31 31 32 35
3 3 6 5 1 3 5 4 5 6 4 7 7 10 12 5 6 4 2 4 3 2 11 4 4 5 8 6 14 14 13 11 7 5 4 4 9 16 22 33 36 30 26 28
1 3 3 2 2 4 5 5 3 4 5 6 7 6 6 6 8 6 4 3 1 13 5 3 3 4 4 12 12 11 11 9 7 9 7 5 9 14 26 36 37 27 22 23
2 3 4 3 1 3 4 7 6 8 14 35 30 8 9 8 6 4 4 1 3 5 4 3 1 3 9 10 8 9 11 14 15 15 11 11 14 16 28 40 44 37 29 27
2 2 3 1 4 13 12 11 16 18 34 28 11 4 5 6 4 3 3 4 4 3 6 5 4 8 9 9 10 12 13 12 12 13 18 17 15 14 26 37 43 41 37 31
3 3 4 5 8 10 8 16 29 22 30 15 3 3 5 4 2 4 5 4 2 5 3 6 11 12 9 8 11 11 10 11 10 10 12 18 17 15 17 27 37 44 45 47
4 3 9 10 14 15 12 31 30 35 12 8 6 5 8 2 3 3 5 6 4 6 6 14 14 11 7 8 13 12 9 7 6 6 8 10 12 13 17 23 32 39 45 51
Wind_Direction_500mb
348 349 352 353 351 351 354 353 322 327 350 21 36 77 315 305 288 328 143 148 172 194 168 111 108 98 30 357 332 141 179 184 249 261 328 331 296 264 207 237 246 108 310 248
345 347 348 351 352 354 353 336 301 343 356 55 25 326 297 280 347 327 317 195 25 61 182 173 147 161 165 36 79 154 169 194 269 172 189 190 219 158 113 90 84 235 244 234
341 343 344 347 350 352 352 347 327 346 49 66 29 356 325 315 317 270 27 115 122 124 169 319 158 154 201 357 92 54 186 220 239 246 347 58 218 214 182 192 206 244 239 259
336 339 340 343 346 352 354 8 40 354 326 28 345 287 314 315 320 5 12 137 185 151 192 196 211 154 192 207 332 58 126 256 249 262 267 257 255 251 229 225 250 245 276 246
333 335 337 340 344 353 359 18 1 335 282 296 296 264 128 343 343 320 1 10 39 114 206 216 195 185 215 239 155 149 9 267 250 271 270 276 267 261 255 252 254 256 262 271
329 332 335 339 346 355 8 358 341 325 287 311 277 211 10 11 351 241 75 356 312 257 323 305 272 224 223 257 207 193 203 221 216 256 332 303 268 256 245 239 226 240 241 267
325 328 330 335 344 352 351 349 341 304 277 282 281 294 304 288 296 269 298 319 254 360 314 284 273 257 254 239 240 218 194 194 202 266 231 239 51 348 238 227 228 197 262 242
321 323 324 329 335 344 336 326 339 281 276 277 291 284 285 310 310 260 265 279 322 312 294 219 251 222 215 150 54 189 201 183 166 230 225 309 274 151 229 226 178 20 286 46
317 317 319 324 326 333 328 305 283 267 285 228 253 305 293 289 298 281 249 287 314 253 214 197 227 232 218 188 148 101 139 187 211 167 231 253 63 134 83 129 258 80 22 320
313 312 314 319 321 327 331 299 277 264 267 277 258 238 277 285 276 283 298 334 315 185 197 216 218 231 236 230 216 178 176 187 216 203 236 274 319 155 151 246 16 332 312 319
310 311 311 314 316 314 322 301 279 266 263 279 272 260 257 255 244 245 318 285 191 249 214 222 194 221 193 233 176 197 196 190 197 208 232 253 133 145 240 360 307 301 307 311
310 313 313 299 290 302 303 306 302 286 272 266 282 280 272 256 249 229 238 300 319 293 263 197 205 190 190 201 216 155 210 266 258 214 267 101 34 278 304 307 294 300 305 309
302 308 318 309 295 292 273 286 300 310 297 301 286 285 212 220 268 232 240 261 228 240 229 296 58 240 232 208 201 196 171 164 247 260 171 252 275 291 278 311 310 308 307 307
303 294 309 308 285 276 298 300 300 297 289 280 283 317 294 288 267 244 230 202 290 250 204 213 230 226 187 242 11 259 313 168 219 253 281 284 296 271 324 319 319 318 316 319
303 295 295 291 299 306 300 298 284 263 230 279 289 311 26 359 304 241 217 217 234 297 215 210 215 129 196 162 254 246 203 232 212 257 155 294 300 320 322 320 326 329 323 324
287 289 278 287 295 302 320 298 295 244 236 278 291 287 256 344 317 231 205 209 223 231 262 180 201 200 231 242 244 248 214 211 207 124 329 291 297 314 316 325 336 337 335 335
295 296 282 288 296 292 282 274 287 282 2 307 292 291 300 325 9 137 154 175 187 196 229 217 199 169 190 254 250 212 218 217 236 265 300 299 271 312 316 326 347 354 357 354
297 301 290 293 271 277 292 318 280 238 269 285 284 283 304 340 342 142 150 164 183 197 197 215 187 150 219 254 245 253 244 250 263 237 286 278 304 317 284 313 331 352 353 351
298 303 292 282 269 256 233 208 145 178 208 269 248 293 325 338 325 131 134 170 177 169 211 199 168 152 227 236 252 236 198 225 301 322 345 3 354 344 313 312 316 323 331 343
304 302 280 252 244 4 319 242 258 201 203 226 251 261 273 326 309 69 120 109 159 192 199 136 216 250 259 265 265 274 275 280 266 246 93 4 349 4 358 330 319 318 322 328
301 326 316 63 20 314 299 243 227 178 231 220 245 242 276 281 279 343 299 264 182 214 152 208 192 253 274 349 56 102 101 113 130 170 322 353 340 340 346 346 337 326 323 326
101 357 307 327 357 240 262 221 189 224 268 209 228 236 220 263 234 270 223 302 203 187 141 219 202 246 282 46 102 104 111 116 120 54 94 51 3 353 348 347 347 339 330 329
85 343 327 353 205 256 269 345 121 289 248 254 254 228 196 226 225 250 242 257 291 133 190 185 255 281 356 124 116 121 112 102 83 68 90 40 22 17 6 3 5 1 348 341
355 344 328 291 238 335 323 319 307 296 285 302 304 244 198 197 193 240 253 92 230 175 199 168 125 65 84 125 131 124 111 80 76 77 71 50 53 41 25 26 23 21 15 359
348 325 351 287 311 264 284 309 313 309 305 298 283 219 180 172 235 232 235 237 231 220 17 65 61 73 94 110 116 111 104 83 81 67 56 57 62 55 34 31 30 31 29 14
323 277 287 303 297 324 342 331 311 344 335 328 217 149 174 134 277 217 216 257 96 76 47 6 54 59 71 113 116 123 109 89 87 75 62 55 63 57 40 26 27 29 29 22
313 296 285 286 286 279 308 320 326 341 1 355 3 28 27 330 1 27 347 11 25 8 32 48 37 26 55 115 138 149 145 120 98 89 71 64 50 30 23 18 21 23 25 21
Wind_Speed_850mb
63 67 70 71 73 71 63 32 9 25 26 5 5 2 7 8 6 2 1 4 4 5 4 3 4 3 6 15 4 5 10 7 17 23 12 4 13 7 6 9 11 1 7 5
61 65 67 66 65 63 58 38 16 15 24 3 4 9 6 5 8 5 2 4 1 3 3 2 9 8 5 13 6 5 9 7 6 5 3 5 12 6 7 9 3 21 17 5
59 62 64 62 58 53 45 16 8 11 19 13 6 10 4 9 10 2 2 3 4 5 2 6 9 9 3 8 3 9 3 6 11 16 4 2 5 8 9 5 7 9 17 9
57 59 59 58 54 46 30 13 4 5 9 5 11 4 6 8 8 10 8 3 4 4 5 3 2 4 3 3 3 3 1 8 8 20 18 12 15 18 17 20 20 16 20 21
54 54 53 51 48 41 17 10 8 9 10 10 9 0 2 5 8 7 7 4 4 3 6 4 5 8 7 7 7 4 3 6 3 11 14 17 24 22 22 24 25 25 26 33
50 48 47 44 40 35 12 14 8 5 6 5 5 1 3 1 12 6 8 14 7 5 3 11 13 15 4 2 7 11 7 6 5 8 3 9 18 23 28 16 14 17 17 4
43 41 40 37 33 27 21 12 8 3 6 5 5 5 16 17 8 9 20 18 4 4 11 9 8 10 12 12 12 19 11 10 6 4 2 8 6 8 6 11 7 12 4 1
38 36 34 32 29 21 17 13 6 3 7 7 23 6 7 10 16 13 13 10 7 17 6 4 6 6 5 9 8 10 17 12 6 5 10 14 12 5 3 6 3 5 4 1
34 32 30 27 25 21 14 15 11 6 7 5 4 7 14 10 6 7 7 7 16 4 7 7 11 10 5 10 9 10 10 3 6 5 6 7 5 7 6 2 11 8 4 17
31 28 26 24 21 21 16 15 14 8 10 14 8 9 4 4 4 8 9 14 5 2 8 12 12 12 3 8 11 11 9 8 17 10 9 9 2 7 3 9 5 11 17 28
27 25 24 20 14 23 19 14 19 9 12 31 40 31 29 19 16 11 4 8 5 5 9 8 8 9 7 6 2 6 13 12 9 7 8 11 6 6 6 8 16 24 26 37
24 25 22 14 18 23 18 12 14 24 25 27 45 59 61 46 32 16 5 5 7 5 4 3 2 6 5 5 8 4 8 3 2 8 2 6 2 5 16 14 18 29 35 38
23 23 24 23 20 15 17 21 20 24 21 32 17 10 9 1 15 54 22 13 12 8 5 1 1 4 2 7 6 4 4 4 5 5 5 4 10 19 9 17 23 29 28 30
23 24 21 24 15 15 18 25 29 24 13 10 13 3 22 36 29 28 38 17 5 9 5 6 3 4 3 2 2 6 2 10 7 11 19 15 4 6 21 26 24 23 28 30
29 28 24 19 17 20 30 31 32 27 17 8 22 32 8 8 10 20 36 42 23 3 5 6 5 4 5 2 3 10 14 13 9 7 5 6 19 20 24 18 20 23 30 34
26 26 19 18 23 24 18 7 8 11 16 8 7 10 5 16 17 19 24 35 23 9 4 2 3 5 3 4 5 7 14 14 14 2 6 17 25 17 12 12 18 24 23 26
22 23 20 17 21 17 10 10 17 6 13 5 11 9 5 16 2 9 15 17 11 10 6 6 3 6 8 4 7 3 7 17 16 19 18 14 6 9 14 10 18 22 21 25
22 21 19 20 17 21 18 7 11 28 17 7 6 8 8 9 1 9 14 16 13 13 4 2 5 7 5 7 17 11 11 12 14 5 12 12 12 15 7 12 17 21 24 31
18 19 15 15 14 9 6 8 4 12 13 5 5 6 6 16 7 5 6 10 8 8 9 7 10 4 9 11 10 7 6 4 7 8 3 3 5 9 10 13 17 21 27 36
19 12 4 5 4 6 4 5 3 5 10 8 8 8 6 7 7 3 3 1 4 5 6 10 5 6 31 30 31 31 23 17 8 1 1 4 2 10 16 17 22 27 33 37
7 3 2 6 3 3 2 4 5 5 5 8 9 13 8 4 5 3 2 1 5 5 5 7 7 5 5 4 3 5 7 9 8 4 4 2 4 12 22 29 31 31 32 35
3 3 6 5 1 3 5 4 5 6 4 7 7 10 12 5 6 4 2 4 3 2 11 4 4 5 8 6 14 14 13 11 7 5 4 4 9 16 22 33 36 30 26 28
1 3 3 2 2 4 5 5 3 4 5 6 7 6 6 6 8 6 4 3 1 13 5 3 3 4 4 12 12 11 11 9 7 9 7 5 9 14 26 36 37 27 22 23
2 3 4 3 1 3 4 7 6 8 14 35 30 8 9 8 6 4 4 1 3 5 4 3 1 3 9 10 8 9 11 14 15 15 11 11 14 16 28 40 44 37 29 27
2 2 3 1 4 13 12 11 16 18 34 28 11 4 5 6 4 3 3 4 4 3 6 5 4 8 9 9 10 12 13 12 12 13 18 17 15 14 26 37 43 41 37 31
3 3 4 5 8 10 8 16 29 22 30 15 3 3 5 4 2 4 5 4 2 5 3 6 11 12 9 8 11 11 10 11 10 10 12 18 17 15 17 27 37 44 45 47
4 3 9 10 14 15 12 31 30 35 12 8 6 5 8 2 3 3 5 6 4 6 6 14 14 11 7 8 13 12 9 7 6 6 8 10 12 13 17 23 32 39 45 51
Wind_Direction_850mb
348 349 352 353 351 351 354 353 322 327 350 21 36 77 315 305 288 328 143 148 172 194 168 111 108 98 30 357 332 141 179 184 249 261 328 331 296 264 207 237 246 108 310 248
345 347 348 351 352 354 353 336 301 343 356 55 25 326 297 280 347 327 317 195 25 61 182 173 147 161 165 36 79 154 169 194 269 172 189 190 219 158 113 90 84 235 244 234
341 343 344 347 350 352 352 347 327 346 49 66 29 356 325 315 317 270 27 115 122 124 169 319 158 154 201 357 92 54 186 220 239 246 347 58 218 214 182 192 206 244 239 259
336 339 340 343 346 352 354 8 40 354 326 28 345 287 314 315 320 5 12 137 185 151 192 196 211 154 192 207 332 58 126 256 249 262 267 257 255 251 229 225 250 245 276 246
333 335 337 340 344 353 359 18 1 335 282 296 296 264 128 343 343 320 1 10 39 114 206 216 195 185 215 239 155 149 9 267 250 271 270 276 267 261 255 252 254 256 262 271
329 332 335 339 346 355 8 358 341 325 287 311 277 211 10 11 351 241 75 356 312 257 323 305 272 224 223 257 207 193 203 221 216 256 332 303 268 256 245 239 226 240 241 267
325 328 330 335 344 352 351 349 341 304 277 282 281 294 304 288 296 269 298 319 254 360 314 284 273 257 254 239 240 218 194 194 202 266 231 239 51 348 238 227 228 197 262 242
321 323 324 329 335 344 336 326 339 281 276 277 291 284 285 310 310 260 265 279 322 312 294 219 251 222 215 150 54 189 201 183 166 230 225 309 274 151 229 226 178 20 286 46
317 317 319 324 326 333 328 305 283 267 285 228 253 305 293 289 298 281 249 287 314 253 214 197 227 232 218 188 148 101 139 187 211 167 231 253 63 134 83 129 258 80 22 320
313 312 314 319 321 327 331 299 277 264 267 277 258 238 277 285 276 283 298 334 315 185 197 216 218 231 236 230 216 178 176 187 216 203 236 274 319 155 151 246 16 332 312 319
310 311 311 314 316 314 322 301 279 266 263 279 272 260 257 255 244 245 318 285 191 249 214 222 194 221 193 233 176 197 196 190 197 208 232 253 133 145 240 360 307 301 307 311
310 313 313 299 290 302 303 306 302 286 272 266 282 280 272 256 249 229 238 300 319 293 263 197 205 190 190 201 216 155 210 266 258 214 267 101 34 278 304 307 294 300 305 309
302 308 318 309 295 292 273 286 300 310 297 301 286 285 212 220 268 232 240 261 228 240 229 296 58 240 232 208 201 196 171 164 247 260 171 252 275 291 278 311 310 308 307 307
303 294 309 308 285 276 298 300 300 297 289 280 283 317 294 288 267 244 230 202 290 250 204 213 230 226 187 242 11 259 313 168 219 253 281 284 296 271 324 319 319 318 316 319
303 295 295 291 299 306 300 298 284 263 230 279 289 311 26 359 304 241 217 217 234 297 215 210 215 129 196 162 254 246 203 232 212 257 155 294 300 320 322 320 326 329 323 324
287 289 278 287 295 302 320 298 295 244 236 278 291 287 256 344 317 231 205 209 223 231 262 180 201 200 231 242 244 248 214 211 207 124 329 291 297 314 316 325 336 337 335 335
295 296 282 288 296 292 282 274 287 282 2 307 292 291 300 325 9 137 154 175 187 196 229 217 199 169 190 254 250 212 218 217 236 265 300 299 271 312 316 326 347 354 357 354
297 301 290 293 271 277 292 318 280 238 269 285 284 283 304 340 342 142 150 164 183 197 197 215 187 150 219 254 245 253 244 250 263 237 286 278 304 317 284 313 331 352 353 351
298 303 292 282 269 256 233 208 145 178 208 269 248 293 325 338 325 131 134 170 177 169 211 199 168 152 227 236 252 236 198 225 301 322 345 3 354 344 313 312 316 323 331 343
304 302 280 252 244 4 319 242 258 201 203 226 251 261 273 326 309 69 120 109 159 192 199 136 216 250 259 265 265 274 275 280 266 246 93 4 349 4 358 330 319 318 322 328
301 326 316 63 20 314 299 243 227 178 231 220 245 242 276 281 279 343 299 264 182 214 152 208 192 253 274 349 56 102 101 113 130 170 322 353 340 340 346 346 337 326 323 326
101 357 307 327 357 240 262 221 189 224 268 209 228 236 220 263 234 270 223 302 203 187 141 219 202 246 282 46 102 104 111 116 120 54 94 51 3 353 348 347 347 339 330 329
85 343 327 353 205 256 269 345 121 289 248 254 254 228 196 226 225 250 242 257 291 133 190 185 255 281 356 124 116 121 112 102 83 68 90 40 22 17 6 3 5 1 348 341
355 344 328 291 238 335 323 319 307 296 285 302 304 244 198 197 193 240 253 92 230 175 199 168 125 65 84 125 131 124 111 80 76 77 71 50 53 41 25 26 23 21 15 359
348 325 351 287 311 264 284 309 313 309 305 298 283 219 180 172 235 232 235 237 231 220 17 65 61 73 94 110 116 111 104 83 81 67 56 57 62 55 34 31 30 31 29 14
323 277 287 303 297 324 342 331 311 344 335 328 217 149 174 134 277 217 216 257 96 76 47 6 54 59 71 113 116 123 109 89 87 75 62 55 63 57 40 26 27 29 29 22
313 296 285 286 286 279 308 320 326 341 1 355 3 28 27 330 1 27 347 11 25 8 32 48 37 26 55 115 138 149 145 120 98 89 71 64 50 30 23 18 21 23 25 21